{"data":{"norad_id":39088,"epoch":"2026-05-25T03:44:29.226048Z","epoch_age_seconds":68340,"freshness":"FRESH","line1":"1 39088U 13009C   26145.15589382  .00000090  00000+0  46510-4 0  9998","line2":"2 39088  98.4257 325.1595 0010399 322.7140  37.3323 14.35233339693270","mean_motion":14.35233339,"eccentricity":0.0010399,"inclination_deg":98.4257,"raan_deg":325.1595,"arg_perigee_deg":322.714,"mean_anomaly_deg":37.3323,"bstar":4.651e-5,"rev_number":69327,"period_min":100.3321174941,"perigee_km":766.85325536135,"apogee_km":781.72887525157,"semimajor_km":7152.4280653065,"source":"CELESTRAK","updated_at":"2026-05-25T13:38:25.165548Z"}}